Weather History for KLNS - September, 2011

Change the Weather History Date:

Saturday, September 24, 2011

  Actual Average Record
Temperature  
Mean Temperature 70 °F -  
Max Temperature 75 °F 71 °F 84 °F (1984)
Min Temperature 64 °F 48 °F 36 °F (1983)
Cooling Degree Days 4    
Growing Degree Days 20 (Base 50)    
Moisture  
Dew Point 65 °F    
Average Humidity 90    
Maximum Humidity 100    
Minimum Humidity 71    
Precipitation  
Precipitation 0.01 in - - ()
Sea Level Pressure  
Sea Level Pressure 30.03 in    
Wind  
Wind Speed 1 mph (West)    
Max Wind Speed 6 mph    
Max Gust Speed -    
Visibility 4 miles    
Events Fog    
Averages and records for this station are not official NWS values.
T = Trace of Precipitation, MM = Missing Value Source: NWS Daily Summary

Daily Weather History Graph

Daily Weather History Graph

Search for Another Location

Airport or City:

Trip Planner

Search our weather history database for the weather conditions in past years. The results will help you decide how hot, cold, wet, or windy it might be!

Date:

Astronomy

Sep. 24, 2011 Rise Set
Actual Time 6:54 AM EDT 6:59 PM EDT
Civil Twilight 6:27 AM EDT 7:26 PM EDT
Nautical Twilight 5:55 AM EDT 7:58 PM EDT
Astronomical Twilight 5:23 AM EDT 8:30 PM EDT
Moon 3:27 AM EDT (9/24) 5:04 PM EDT (9/24)
Length of Visible Light 12h 59m
Length of Day
12h 05m
Waning Crescent, 11% of the Moon is Illuminated
Sep 24
Waning Crescent
Sep 27
New
Oct 3
First Quarter
Oct 11
Full
Oct 19
Last Quarter

Hourly Weather History & Observations

Time (EDT) Temp. Dew Point Humidity Pressure Visibility Wind Dir Wind Speed Gust Speed Precip Events Conditions
12:05 AM 64.4 °F 64.4 °F 100% 29.94 in 0.2 mi Calm Calm - N/A Fog Fog
12:23 AM 66.2 °F 64.4 °F 94% 29.94 in 0.8 mi Calm Calm - N/A   Mist
12:53 AM 66.9 °F 66.0 °F 97% 29.94 in 0.5 mi Calm Calm - N/A Fog Fog
1:11 AM 66.2 °F 66.2 °F 100% 29.95 in 1.2 mi Calm Calm - N/A   Overcast
1:20 AM 66.2 °F 66.2 °F 100% 29.95 in 0.8 mi Calm Calm - N/A   Overcast
1:26 AM 66.2 °F 66.2 °F 100% 29.95 in 1.5 mi Calm Calm - N/A   Overcast
1:29 AM 66.2 °F 66.2 °F 100% 29.95 in 3.0 mi Calm Calm - N/A   Overcast
1:53 AM 66.9 °F 66.0 °F 97% 29.94 in 5.0 mi Calm Calm - N/A   Overcast
2:34 AM 66.2 °F 66.2 °F 100% 29.95 in 6.0 mi Calm Calm - N/A   Overcast
2:53 AM 68.0 °F 66.9 °F 96% 29.95 in 5.0 mi WSW 4.6 mph - N/A   Overcast
3:53 AM 68.0 °F 66.0 °F 93% 29.96 in 6.0 mi West 4.6 mph - 0.01 in   Overcast
4:45 AM 66.2 °F 64.4 °F 94% 29.98 in 4.0 mi West 5.8 mph - N/A   Partly Cloudy
4:53 AM 66.0 °F 64.9 °F 96% 29.97 in 4.0 mi West 5.8 mph - N/A   Partly Cloudy
5:19 AM 66.2 °F 64.4 °F 94% 29.98 in 5.0 mi West 4.6 mph - N/A   Mostly Cloudy
5:32 AM 66.2 °F 64.4 °F 94% 29.99 in 5.0 mi West 3.5 mph - N/A   Scattered Clouds
6:53 AM 64.9 °F 64.0 °F 97% 30.01 in 3.0 mi Calm Calm - N/A   Scattered Clouds
7:08 AM 64.4 °F 62.6 °F 94% 30.01 in 1.8 mi WNW 3.5 mph - N/A   Partly Cloudy
7:53 AM 64.9 °F 64.0 °F 97% 30.02 in 1.8 mi Calm Calm - N/A   Clear
8:36 AM 66.2 °F 64.4 °F 94% 30.04 in 2.0 mi West 4.6 mph - N/A   Clear
8:53 AM 66.9 °F 64.9 °F 93% 30.04 in 3.0 mi West 3.5 mph - N/A   Clear
9:53 AM 66.9 °F 64.9 °F 93% 30.06 in 4.0 mi WNW 4.6 mph - N/A   Clear
10:53 AM 68.0 °F 64.0 °F 87% 30.07 in 5.0 mi Calm Calm - N/A   Clear
11:14 AM 69.8 °F 64.4 °F 83% 30.08 in 5.0 mi Calm Calm - N/A   Partly Cloudy
11:53 AM 69.1 °F 64.9 °F 87% 30.08 in 5.0 mi West 4.6 mph - N/A   Clear
12:15 PM 69.8 °F 64.4 °F 83% 30.09 in 5.0 mi West 3.5 mph - N/A   Scattered Clouds
12:53 PM 70.0 °F 64.9 °F 84% 30.08 in 5.0 mi Calm Calm - N/A   Haze
1:18 PM 71.6 °F 64.4 °F 78% 30.08 in 5.0 mi North 3.5 mph - N/A   Haze
1:25 PM 71.6 °F 64.4 °F 78% 30.07 in 5.0 mi Calm Calm - N/A   Haze
1:33 PM 71.6 °F 64.4 °F 78% 30.07 in 5.0 mi Variable 3.5 mph - N/A   Haze
1:48 PM 73.4 °F 64.4 °F 73% 30.06 in 5.0 mi Calm Calm - N/A   Haze
1:53 PM 73.0 °F 64.9 °F 76% 30.06 in 5.0 mi Calm Calm - N/A   Haze
2:05 PM 73.4 °F 64.4 °F 73% 30.06 in 5.0 mi North 3.5 mph - N/A   Haze
2:17 PM 71.6 °F 64.4 °F 78% 30.05 in 5.0 mi Calm Calm - N/A   Haze
2:53 PM 75.0 °F 64.9 °F 71% 30.04 in 7.0 mi Variable 3.5 mph - N/A   Scattered Clouds
3:53 PM 73.9 °F 64.0 °F 71% 30.04 in 7.0 mi Calm Calm - N/A   Clear
4:53 PM 73.9 °F 64.9 °F 73% 30.05 in 6.0 mi SE 4.6 mph - N/A   Haze
5:53 PM 72.0 °F 66.0 °F 81% 30.06 in 5.0 mi SE 3.5 mph - N/A   Haze
7:53 PM 69.1 °F 66.0 °F 90% 30.06 in 4.0 mi Calm Calm - N/A   Clear
8:53 PM 66.9 °F 64.9 °F 93% 30.08 in 4.0 mi Calm Calm - N/A   Clear
9:45 PM 66.2 °F 64.4 °F 94% 30.08 in 2.5 mi Calm Calm - N/A   Clear
9:53 PM 66.0 °F 64.0 °F 93% 30.08 in 2.0 mi Calm Calm - N/A   Clear
10:20 PM 66.2 °F 64.4 °F 94% 30.09 in 3.0 mi Calm Calm - N/A   Clear
10:45 PM 66.2 °F 64.4 °F 94% 30.09 in 2.5 mi Calm Calm - N/A   Clear
10:53 PM 66.0 °F 64.0 °F 93% 30.09 in 2.0 mi Calm Calm - N/A   Clear
11:07 PM 64.4 °F 64.4 °F 100% 30.10 in 1.5 mi Calm Calm - N/A   Clear
11:24 PM 64.4 °F 62.6 °F 94% 30.09 in 2.0 mi Calm Calm - N/A   Clear
11:35 PM 64.4 °F 62.6 °F 94% 30.09 in 1.8 mi Calm Calm - N/A   Clear
11:42 PM 64.4 °F 62.6 °F 94% 30.10 in 2.0 mi Calm Calm - N/A   Clear
11:49 PM 64.4 °F 64.4 °F 100% 30.10 in 1.2 mi Calm Calm - N/A   Clear
11:59 PM 64.4 °F 64.4 °F 100% 30.10 in 0.2 mi Calm Calm - N/A Fog Fog